Regional Weather Roundup
Issued by NWS Green Bay, WI

Home | Current Version | Previous Version | Text Only | Print | Product List | Glossary On
Versions: 1 2 3 4 5 6 7 8 9 10 11 12 13 14 15 16 17 18 19 20 21 22 23 24 25 26 27 28 29 30 31 32 33 34 35 36 37 38 39 40 41 42 43 44 45 46 47 48 49 50
000
ASUS43 KGRB 292110
RWRGRB

NORTH-CENTRAL AND NORTHEAST WISCONSIN REGIONAL WEATHER ROUNDUP
NATIONAL WEATHER SERVICE GREEN BAY WI
400 PM CDT WED OCT 29 2014

WIZ005-009-010>012-018-019-292200-
NORTH CENTRAL WISCONSIN

CITY           SKY/WX    TMP DP  RH WIND       PRES   REMARKS
IRONWOOD       CLOUDY    41  36  81 W7        30.04S
MANITOWISH WTR CLOUDY    39  33  78 NW6       30.05S
ARBOR VITAE    CLOUDY    42  35  77 N6        30.05S
EAGLE RIVER    CLOUDY    40  32  71 NW9       30.05R
LAND O LAKES   DRIZZLE   39  37  92 NW7       30.05R
RHINELANDER    CLOUDY    40  32  73 W7        30.06R
PHILLIPS       CLOUDY    41  32  71 W5        30.06S
ANTIGO         CLOUDY    42  33  70 W10       30.05S
TOMAHAWK       CLOUDY    42  32  68 CALM      30.06S
MERRILL        CLOUDY    43  34  68 W7        30.06R
$$

WIZ013-073-292200-
NORTHEAST WISCONSIN

CITY           SKY/WX    TMP DP  RH WIND       PRES   REMARKS
IRON MOUNTAIN  MOSUNNY   47  32  56 N9        30.01R
MARINETTE      CLOUDY    48  32  53 NW12      30.02S
OCONTO         CLOUDY    49  34  56 NW5       30.04R
$$

WIZ017-030-035>037-045-292200-
CENTRAL WISCONSIN

CITY           SKY/WX    TMP DP  RH WIND       PRES   REMARKS
MEDFORD        CLOUDY    43  33  65 NW9       30.07R
WAUSAU         PTSUNNY   43  33  68 W9        30.05S
MOSINEE        PTSUNNY   45  36  70 NW6       30.07S
MARSHFIELD     PTSUNNY   47  33  58 N10       30.07S
WISC RAPIDS    MOSUNNY   46  31  55 W8        30.09S
STEVENS POINT  PTSUNNY   42  31  64 NW7       30.08R
WAUPACA        CLOUDY    48  34  57 NW8       30.08S
SHAWANO        CLOUDY    49  34  56 W7        30.06R
CLINTONVILLE   CLOUDY    46  32  57 NW9       30.06S
$$

WIZ038-039-048-051-292200-
FOX VALLEY

CITY           SKY/WX    TMP DP  RH WIND       PRES   REMARKS
NWS GREEN BAY  CLOUDY    48  35  60 W10       30.05R
APPLETON       PTSUNNY   46  32  57 NW10      30.06R
OSHKOSH        CLOUDY    46  34  62 W9        30.07R
FOND DU LAC    CLOUDY    46  32  58 W9        30.08R
$$

WIZ022-050-052-292200-
EAST CENTRAL WISCONSIN

CITY           SKY/WX    TMP DP  RH WIND       PRES   REMARKS
STURGEON BAY   CLOUDY    46  34  61 NW9       30.04R
MANITOWOC      CLOUDY    48  35  60 NW12      30.06R
SHEBOYGAN      CLOUDY    47  34  60 NW9       30.06R
$$

LMZ563-521-522-541>543-292200-
LAKESHORE

STATION/POSITION TIME  TEMP    WIND        PRES    VSBY  WAVE
                       AIR SEA DIR/SP/G                  HT/PER
                 (UTC) (F)     (DEG/KT/KT) (MB)    (MI)  (FT/S)
SHEBOYGAN LKSHOR 2100   47 51  280/  8/  9 1018.7R
KEWAUNEE LKSHORE 2100   48     310/  7/ 11 1016.3R
NORTHPORT PIER   2100   47     320/ 12/ 16 1016.6S
N MID LAKE BUOY  2100   45 51  340/ 14/ 16 1016.7R         3/ 4
CHAMBERS ISLAND  2100   48     320/ 11/ 13 1016.9R
MENOMINEE LKSHOR 2100   49     300/  7/ 12 1017.4R
$$



USA.gov is the U.S. government's official web portal to all federal, state and local government web resources and services.